User: anonymous   Login
Location: Unspecified
(0.0000°N, 0.0000°E)
Time: 23:01:42
(UTC+00:00)
Language:

TANSAT - Orbit

View from above orbital plane
View from above orbital plane
View from above satellite
View from above satellite

Ground track
Ground track

The orbit data is extracted from the following two-line orbital elements,

1 41898U 16081A   18294.71897575  .00000144  00000-0  42676-4 0  9997
2 41898  98.2169 232.3739 0020735 313.3721  46.5752 14.56570192 97378
Epoch (UTC): 21 October 2018 17:15:19
Eccentricity: 0.0020735
inclination: 98.2169°
perigee height: 689 km
apogee height: 719 km
right ascension of ascending node: 232.3739°
argument of perigee: 313.3721°
revolutions per day: 14.56570192
mean anomaly at epoch: 46.5752°
orbit number at epoch: 9737

The dashed part of the orbit path shows where the satellite is in the earth's shadow,  

DLR